TimeEDT,TemperatureF,Dew PointF,Humidity,Sea Level PressureIn,VisibilityMPH,Wind Direction,Wind SpeedMPH,Gust SpeedMPH,PrecipitationIn,Events,Conditions,WindDirDegrees,DateUTC
12:51 AM,44.1,21.9,42,29.99,10.0,SSE,10.4,-,N/A,,Clear,160,2013-03-31 04:51:00
1:51 AM,45.0,21.0,39,29.96,10.0,South,11.5,-,N/A,,Clear,170,2013-03-31 05:51:00
2:51 AM,45.0,21.0,39,29.94,10.0,South,11.5,-,N/A,,Clear,170,2013-03-31 06:51:00
3:51 AM,44.1,19.9,38,29.90,10.0,South,9.2,-,N/A,,Scattered Clouds,170,2013-03-31 07:51:00
4:51 AM,45.0,19.9,37,29.87,10.0,SSE,11.5,-,N/A,,Partly Cloudy,160,2013-03-31 08:51:00
5:51 AM,46.0,19.9,35,29.84,10.0,SSE,15.0,21.9,N/A,,Clear,160,2013-03-31 09:51:00
6:51 AM,45.0,21.0,39,29.83,10.0,SSE,12.7,-,N/A,,Clear,160,2013-03-31 10:51:00
7:51 AM,45.0,21.9,40,29.82,10.0,SSE,13.8,-,N/A,,Clear,160,2013-03-31 11:51:00
8:51 AM,46.9,21.9,37,29.79,10.0,SSE,12.7,-,N/A,,Clear,160,2013-03-31 12:51:00
9:51 AM,48.9,23.0,36,29.77,10.0,South,13.8,-,N/A,,Partly Cloudy,170,2013-03-31 13:51:00
10:51 AM,52.0,25.0,35,29.75,10.0,South,16.1,21.9,N/A,,Overcast,170,2013-03-31 14:51:00
11:51 AM,54.0,27.0,35,29.73,10.0,South,15.0,27.6,N/A,,Scattered Clouds,180,2013-03-31 15:51:00
12:51 PM,53.6,32.0,44,29.72,10.0,SSW,15.0,-,N/A,,Overcast,210,2013-03-31 16:51:00
1:51 PM,54.0,36.0,51,29.71,10.0,South,18.4,21.9,0.00,Rain,Light Rain,190,2013-03-31 17:51:00
2:51 PM,52.0,39.0,61,29.70,10.0,SSW,15.0,-,0.00,,Overcast,200,2013-03-31 18:51:00
3:51 PM,50.0,42.1,74,29.69,10.0,South,15.0,-,0.00,,Overcast,190,2013-03-31 19:51:00
4:51 PM,50.0,41.0,71,29.67,10.0,South,12.7,-,N/A,,Overcast,190,2013-03-31 20:51:00
5:47 PM,48.2,42.8,82,29.66,10.0,SSW,9.2,-,0.00,,Overcast,200,2013-03-31 21:47:00
5:51 PM,48.0,43.0,83,29.67,9.0,SW,10.4,-,0.00,Rain,Light Rain,220,2013-03-31 21:51:00
6:23 PM,42.8,39.2,87,29.67,2.5,West,11.5,-,0.00,Rain,Light Rain,260,2013-03-31 22:23:00
6:44 PM,44.6,42.8,93,29.67,4.0,WSW,9.2,-,0.02,,Overcast,250,2013-03-31 22:44:00
6:51 PM,45.0,43.0,93,29.68,4.0,WSW,10.4,-,0.02,,Overcast,250,2013-03-31 22:51:00
7:10 PM,46.4,42.8,87,29.67,5.0,WSW,8.1,-,0.01,,Overcast,240,2013-03-31 23:10:00
7:21 PM,46.4,42.8,87,29.67,5.0,WSW,8.1,-,0.01,,Overcast,250,2013-03-31 23:21:00
7:51 PM,45.0,42.1,90,29.68,6.0,SSW,6.9,-,0.01,,Partly Cloudy,200,2013-03-31 23:51:00
8:51 PM,44.1,42.1,93,29.68,9.0,SSW,5.8,-,N/A,,Clear,200,2013-04-01 00:51:00
9:51 PM,46.0,42.1,86,29.68,10.0,South,12.7,-,N/A,,Clear,180,2013-04-01 01:51:00
10:51 PM,46.9,41.0,80,29.66,10.0,SSW,12.7,-,N/A,,Partly Cloudy,200,2013-04-01 02:51:00
11:51 PM,48.0,39.0,71,29.63,10.0,SSW,16.1,-,N/A,,Mostly Cloudy,200,2013-04-01 03:51:00